Weather History for Renton, WA

Change the Weather History Date:

Tuesday, October 16, 2012

  Actual Average Record
Temperature  
Mean Temperature 56 °F -  
Max Temperature 62 °F 59 °F 72 °F (2002)
Min Temperature 51 °F 45 °F 39 °F (1996)
Degree Days  
Heating Degree Days 9    
Growing Degree Days 6 (Base 50)    
Moisture  
Dew Point 46 °F    
Average Humidity 71    
Maximum Humidity 84    
Minimum Humidity 52    
Precipitation  
Precipitation 0.00 in - - ()
Sea Level Pressure  
Sea Level Pressure 30.01 in    
Wind  
Wind Speed 10 mph (South)    
Max Wind Speed 16 mph    
Max Gust Speed 26 mph    
Visibility 10 miles    
Events      
Averages and records for this station are not official NWS values.
T = Trace of Precipitation, MM = Missing Value Source: NWS Daily Summary

Daily Weather History Graph

Daily Weather History Graph

Search for Another Location

Airport:

Trip Planner

Search our weather history database for the weather conditions in past years. The results will help you decide how hot, cold, wet, or windy it might be!

Date:

Astronomy

Oct. 16, 2012 Rise Set
Actual Time 7:29 AM PDT 6:17 PM PDT
Civil Twilight 6:58 AM PDT 6:48 PM PDT
Nautical Twilight 6:23 AM PDT 7:24 PM PDT
Astronomical Twilight 5:47 AM PDT 8:00 PM PDT
Moon 9:08 AM PDT (10/16) 6:56 PM PDT (10/16)
Length of Visible Light 11h 50m
Length of Day
10h 48m
New Moon, 2% of the Moon is Illuminated
Oct 16
New Moon
Oct 21
First Quarter
Oct 29
Full
Nov 6
Last Quarter
Nov 13
New

Hourly Weather History & Observations

Time (PDT) Temp. Dew Point Humidity Pressure Visibility Wind Dir Wind Speed Gust Speed Precip Events Conditions
12:53 AM 57.9 °F 53.1 °F 84% 29.60 in 10.0 mi SSE 13.8 mph 20.7 mph N/A   Clear
1:53 AM 57.0 °F 52.0 °F 83% 29.63 in 10.0 mi SSE 10.4 mph 21.9 mph N/A   Partly Cloudy
2:53 AM 55.0 °F 50.0 °F 83% 29.67 in 10.0 mi South 12.7 mph 23.0 mph N/A   Partly Cloudy
3:53 AM 54.0 °F 48.0 °F 80% 29.69 in 10.0 mi South 16.1 mph 21.9 mph N/A   Clear
4:53 AM 53.6 °F 48.2 °F 82% 29.71 in 10.0 mi South 13.8 mph 26.5 mph N/A   Clear
5:53 AM 53.1 °F 46.0 °F 77% 29.78 in 10.0 mi South 9.2 mph - N/A   Clear
6:53 AM 52.0 °F 46.0 °F 80% 29.86 in 10.0 mi Calm Calm - N/A   Partly Cloudy
7:53 AM 51.1 °F 45.0 °F 80% 29.91 in 10.0 mi SSE 6.9 mph - N/A   Scattered Clouds
8:53 AM 52.0 °F 45.0 °F 77% 29.97 in 10.0 mi ESE 5.8 mph - N/A   Scattered Clouds
9:53 AM 54.0 °F 43.0 °F 66% 30.01 in 10.0 mi Variable 6.9 mph - N/A   Clear
10:53 AM 55.9 °F 43.0 °F 62% 30.04 in 10.0 mi South 8.1 mph - N/A   Partly Cloudy
11:53 AM 57.9 °F 43.0 °F 58% 30.06 in 10.0 mi South 9.2 mph - N/A   Scattered Clouds
12:53 PM 59.0 °F 44.1 °F 58% 30.08 in 10.0 mi SSW 9.2 mph 17.3 mph N/A   Partly Cloudy
1:53 PM 61.0 °F 43.0 °F 52% 30.09 in 10.0 mi SSW 11.5 mph 18.4 mph N/A   Scattered Clouds
2:53 PM 61.0 °F 44.1 °F 54% 30.10 in 10.0 mi South 11.5 mph 19.6 mph N/A   Scattered Clouds
3:53 PM 61.0 °F 45.0 °F 56% 30.12 in 10.0 mi South 13.8 mph 20.7 mph N/A   Clear
4:53 PM 59.0 °F 45.0 °F 60% 30.15 in 10.0 mi South 8.1 mph 16.1 mph N/A   Mostly Cloudy
5:53 PM 57.0 °F 45.0 °F 64% 30.17 in 10.0 mi South 10.4 mph - N/A   Clear
6:53 PM 55.9 °F 45.0 °F 67% 30.19 in 10.0 mi South 8.1 mph - N/A   Partly Cloudy
7:53 PM 54.0 °F 44.1 °F 69% 30.22 in 10.0 mi South 6.9 mph - N/A   Partly Cloudy
8:53 PM 53.1 °F 45.0 °F 74% 30.23 in 10.0 mi SSE 6.9 mph - N/A   Partly Cloudy
9:53 PM 51.1 °F 45.0 °F 80% 30.26 in 10.0 mi Calm Calm - N/A   Mostly Cloudy
10:37 PM 51.8 °F 44.6 °F 76% 30.25 in 10.0 mi East 4.6 mph - N/A   Scattered Clouds
10:53 PM 51.1 °F 45.0 °F 80% 30.28 in 10.0 mi Calm Calm - N/A   Mostly Cloudy
11:53 PM 51.1 °F 45.0 °F 80% 30.30 in 10.0 mi Calm Calm - N/A   Overcast